Weather History for Ellensburg, WA

Change the Weather History Date:

Tuesday, November 20, 2012

  Actual Average (KYKM) Record (KYKM)
Temperature  
Mean Temperature 46 °F 36 °F  
Max Temperature 55 °F 46 °F 63 °F (2002)
Min Temperature 36 °F 26 °F 1 °F (1985)
Degree Days  
Heating Degree Days 20 29  
Month to date heating degree days 515  
Since 1 July heating degree days 1219  
Cooling Degree Days 0 0  
Month to date cooling degree days 0  
Year to date cooling degree days 472  
Moisture  
Dew Point 37 °F    
Average Humidity 75    
Maximum Humidity 86    
Minimum Humidity 57    
Precipitation  
Precipitation 0.00 in 0.04 in 0.41 in (1966)
Month to date precipitation 0.65  
Year to date precipitation 6.32  
Sea Level Pressure  
Sea Level Pressure 29.67 in    
Wind  
Wind Speed 6 mph (East)    
Max Wind Speed 13 mph    
Max Gust Speed 20 mph    
Visibility 10 miles    
Events      
T = Trace of Precipitation, MM = Missing Value Source: NWS Daily Summary

Daily Weather History Graph

Daily Weather History Graph

Search for Another Location

Airport:

Trip Planner

Search our weather history database for the weather conditions in past years. The results will help you decide how hot, cold, wet, or windy it might be!

Date:

Astronomy

Nov. 20, 2012 Rise Set
Actual Time 7:13 AM PST 4:21 PM PST
Civil Twilight 6:39 AM PST 4:55 PM PST
Nautical Twilight 6:02 AM PST 5:32 PM PST
Astronomical Twilight 5:26 AM PST 6:09 PM PST
Moon 12:36 PM PST (11/20) No Moon Set
Length of Visible Light 10h 15m
Length of Day
9h 08m
First Quarter, 52% of the Moon is Illuminated
Nov 20
First Quarter
Nov 28
Full
Dec 6
Last Quarter
Dec 13
New
Dec 19
First Quarter

Hourly Weather History & Observations

Time (PST) Temp. Windchill Dew Point Humidity Pressure Visibility Wind Dir Wind Speed Gust Speed Precip Events Conditions
12:53 AM 41.0 °F 35.2 °F 36.0 °F 82% 29.71 in 10.0 mi East 9.2 mph - N/A   Clear
1:53 AM 41.0 °F 39.0 °F 36.0 °F 82% 29.73 in 10.0 mi East 3.5 mph - N/A   Mostly Cloudy
2:53 AM 43.0 °F 39.5 °F 37.9 °F 82% 29.73 in 10.0 mi ENE 5.8 mph - N/A   Mostly Cloudy
3:53 AM 41.0 °F - 37.0 °F 86% 29.74 in 10.0 mi Calm Calm - N/A   Mostly Cloudy
4:53 AM 44.1 °F 40.1 °F 37.9 °F 79% 29.72 in 10.0 mi ENE 6.9 mph - N/A   Scattered Clouds
5:50 AM 42.8 °F - 37.4 °F 81% 29.71 in 10.0 mi Calm Calm - N/A   Overcast
5:53 AM 44.1 °F 42.5 °F 37.0 °F 76% 29.72 in 10.0 mi SSE 3.5 mph - N/A   Overcast
6:37 AM 42.8 °F 39.3 °F 37.4 °F 81% 29.69 in 10.0 mi ENE 5.8 mph - N/A   Overcast
6:53 AM 44.1 °F 40.1 °F 37.9 °F 79% 29.69 in 10.0 mi ENE 6.9 mph - N/A   Mostly Cloudy
7:53 AM 45.0 °F 42.6 °F 37.9 °F 76% 29.69 in 10.0 mi East 4.6 mph - N/A   Scattered Clouds
8:38 AM 46.4 °F 42.9 °F 39.2 °F 76% 29.66 in 10.0 mi East 6.9 mph - N/A   Overcast
8:53 AM 46.9 °F - 39.0 °F 74% 29.66 in 10.0 mi East 5.8 mph - N/A   Overcast
9:08 AM 48.2 °F - 39.2 °F 71% 29.64 in 10.0 mi East 4.6 mph - N/A   Overcast
9:51 AM 48.2 °F - 39.2 °F 71% 29.64 in 10.0 mi ESE 8.1 mph - N/A   Mostly Cloudy
9:53 AM 48.9 °F - 39.9 °F 71% 29.65 in 10.0 mi ESE 8.1 mph - N/A   Mostly Cloudy
10:45 AM 48.2 °F - 41.0 °F 76% 29.63 in 10.0 mi ESE 8.1 mph - N/A   Mostly Cloudy
10:53 AM 48.9 °F - 41.0 °F 74% 29.64 in 10.0 mi East 9.2 mph - N/A   Scattered Clouds
11:29 AM 51.8 °F - 42.8 °F 71% 29.61 in 10.0 mi ESE 8.1 mph - N/A   Overcast
11:40 AM 51.8 °F - 42.8 °F 71% 29.60 in 10.0 mi SE 9.2 mph - N/A   Overcast
11:53 AM 52.0 °F - 42.1 °F 69% 29.61 in 10.0 mi SE 8.1 mph - N/A   Overcast
12:53 PM 55.0 °F - 39.9 °F 57% 29.61 in 10.0 mi SSE 10.4 mph 19.6 mph N/A   Scattered Clouds
1:53 PM 55.9 °F - 41.0 °F 57% 29.60 in 10.0 mi South 8.1 mph - N/A   Mostly Cloudy
2:53 PM 54.0 °F - 39.9 °F 59% 29.61 in 10.0 mi SSE 6.9 mph - N/A   Mostly Cloudy
3:53 PM 53.1 °F - 41.0 °F 64% 29.65 in 10.0 mi WSW 9.2 mph - 0.00 in   Overcast
4:36 PM 44.6 °F 38.4 °F 35.6 °F 71% 29.66 in 10.0 mi NNW 12.7 mph - N/A   Partly Cloudy
4:53 PM 44.1 °F 37.7 °F 35.1 °F 71% 29.68 in 10.0 mi NW 12.7 mph - N/A   Clear
5:53 PM 39.0 °F 34.0 °F 32.0 °F 76% 29.71 in 10.0 mi WNW 6.9 mph - N/A   Clear
6:53 PM 39.0 °F 34.0 °F 33.1 °F 79% 29.70 in 10.0 mi SW 6.9 mph - N/A   Clear
7:53 PM 36.0 °F 33.3 °F 30.9 °F 82% 29.71 in 10.0 mi ENE 3.5 mph - N/A   Clear
8:53 PM 37.0 °F - 33.1 °F 86% 29.71 in 10.0 mi Calm Calm - N/A   Scattered Clouds
9:53 PM 37.0 °F - 32.0 °F 82% 29.68 in 10.0 mi Calm Calm - N/A   Scattered Clouds
10:53 PM 36.0 °F - 30.9 °F 82% 29.70 in 10.0 mi Calm Calm - N/A   Mostly Cloudy
11:53 PM 37.0 °F 33.3 °F 32.0 °F 82% 29.68 in 10.0 mi ENE 4.6 mph - N/A   Mostly Cloudy